| time (UTC) | temp F | wind direction | speed MPH | gust MPH | rain 1hr in | rain 24hr in | rain mn in | humidity % | barometer mb |
| 20260903121827 | 76 | 213 | 0.0 | 0.0 | 0.00 | 0.00 | 0.00 | 88 | 1015.8 |
| 20260903121327 | 75 | 213 | 0.0 | 0.0 | 0.00 | 0.00 | 0.00 | 89 | 1015.7 |
| 20260903120827 | 75 | 213 | 0.0 | 0.0 | 0.00 | 0.00 | 0.00 | 89 | 1015.7 |
| 20260903115827 | 74 | 213 | 0.0 | 0.0 | 0.00 | 0.00 | 0.00 | 90 | 1015.7 |
| 20260903115326 | 74 | 213 | 0.0 | 0.0 | 0.00 | 0.00 | 0.00 | 90 | 1015.7 |
| 20260903114827 | 74 | 213 | 0.0 | 0.0 | 0.00 | 0.00 | 0.00 | 89 | 1015.7 |
| 20260903114327 | 74 | 213 | 0.0 | 0.0 | 0.00 | 0.00 | 0.00 | 88 | 1015.6 |
| 20260903113826 | 74 | 213 | 0.0 | 0.0 | 0.00 | 0.00 | 0.00 | 88 | 1015.6 |
| 20260903113326 | 74 | 213 | 0.0 | 0.0 | 0.00 | 0.00 | 0.00 | 87 | 1015.4 |
| 20260903112826 | 75 | 213 | 0.0 | 1.0 | 0.00 | 0.00 | 0.00 | 87 | 1015.4 |
| 20260903112326 | 75 | 213 | 0.0 | 1.0 | 0.00 | 0.00 | 0.00 | 87 | 1015.3 |
| 20260903111325 | 75 | 213 | 0.0 | 0.0 | 0.00 | 0.00 | 0.00 | 86 | 1015.2 |
| 20260903110826 | 75 | 213 | 0.0 | 2.0 | 0.00 | 0.00 | 0.00 | 86 | 1015.1 |
| 20260903110325 | 75 | 213 | 0.0 | 2.0 | 0.00 | 0.00 | 0.00 | 85 | 1015.1 |
| 20260903105825 | 76 | 234 | 0.0 | 2.0 | 0.00 | 0.00 | 0.00 | 85 | 1015.1 |
| 20260903104825 | 76 | 236 | 0.0 | 3.0 | 0.00 | 0.00 | 0.00 | 84 | 1015.2 |
| 20260903104325 | 76 | 211 | 1.0 | 4.0 | 0.00 | 0.00 | 0.00 | 84 | 1015.2 |
| 20260903102824 | 76 | 232 | 0.0 | 5.0 | 0.00 | 0.00 | 0.00 | 84 | 1014.9 |
| 20260903102324 | 76 | 205 | 1.0 | 3.0 | 0.00 | 0.00 | 0.00 | 84 | 1015.0 |
| 20260903101824 | 76 | 219 | 1.0 | 4.0 | 0.00 | 0.00 | 0.00 | 84 | 1015.0 |
| 20260903101324 | 76 | 236 | 0.0 | 4.0 | 0.00 | 0.00 | 0.00 | 84 | 1015.0 |
| 20260903100323 | 76 | 258 | 0.0 | 4.0 | 0.00 | 0.00 | 0.00 | 84 | 1014.9 |
| 20260903095823 | 77 | 258 | 1.0 | 4.0 | 0.00 | 0.00 | 0.00 | 84 | 1014.9 |
| 20260903094823 | 77 | 198 | 1.0 | 5.0 | 0.00 | 0.00 | 0.00 | 83 | 1014.9 |
| 20260903093823 | 77 | 237 | 2.0 | 5.0 | 0.00 | 0.00 | 0.00 | 83 | 1014.9 |
| 20260903093322 | 77 | 189 | 1.0 | 5.0 | 0.00 | 0.00 | 0.00 | 84 | 1014.8 |
| 20260903092822 | 77 | 226 | 0.0 | 3.0 | 0.00 | 0.00 | 0.00 | 84 | 1014.8 |
| 20260903092322 | 77 | 203 | 0.0 | 3.0 | 0.00 | 0.00 | 0.00 | 84 | 1014.9 |
| 20260903091822 | 77 | 196 | 0.0 | 4.0 | 0.00 | 0.00 | 0.00 | 84 | 1015.1 |
| 20260903091321 | 77 | 210 | 0.0 | 5.0 | 0.00 | 0.00 | 0.00 | 84 | 1014.9 |
| 20260903090822 | 77 | 240 | 0.0 | 5.0 | 0.00 | 0.00 | 0.00 | 84 | 1014.8 |
| 20260903090321 | 77 | 217 | 2.0 | 5.0 | 0.00 | 0.00 | 0.00 | 84 | 1014.7 |
| 20260903085821 | 77 | 213 | 2.0 | 5.0 | 0.00 | 0.00 | 0.00 | 84 | 1014.8 |
| 20260903085321 | 76 | 202 | 2.0 | 5.0 | 0.00 | 0.00 | 0.00 | 84 | 1014.7 |
| 20260903084821 | 76 | 202 | 0.0 | 3.0 | 0.00 | 0.00 | 0.00 | 84 | 1014.8 |
| 20260903084321 | 76 | 206 | 2.0 | 3.0 | 0.00 | 0.00 | 0.00 | 85 | 1014.8 |
| 20260903083821 | 76 | 237 | 0.0 | 3.0 | 0.00 | 0.00 | 0.00 | 85 | 1014.8 |
| 20260903083320 | 76 | 223 | 1.0 | 3.0 | 0.00 | 0.00 | 0.00 | 85 | 1014.8 |
| 20260903082320 | 76 | 244 | 0.0 | 2.0 | 0.00 | 0.00 | 0.00 | 85 | 1014.8 |
| 20260903081820 | 76 | 213 | 0.0 | 2.0 | 0.00 | 0.00 | 0.00 | 86 | 1015.0 |
| 20260903081320 | 76 | 226 | 0.0 | 2.0 | 0.00 | 0.00 | 0.00 | 85 | 1015.0 |
| 20260903080819 | 76 | 226 | 0.0 | 2.0 | 0.00 | 0.00 | 0.00 | 85 | 1014.9 |
| 20260903080319 | 76 | 223 | 0.0 | 1.0 | 0.00 | 0.00 | 0.00 | 85 | 1014.9 |
| 20260903075820 | 76 | 223 | 0.0 | 1.0 | 0.00 | 0.00 | 0.00 | 85 | 1014.9 |
| 20260903075319 | 77 | 225 | 0.0 | 3.0 | 0.00 | 0.00 | 0.00 | 84 | 1014.9 |
| 20260903074819 | 77 | 227 | 0.0 | 3.0 | 0.00 | 0.00 | 0.00 | 84 | 1014.9 |
| 20260903074319 | 77 | 207 | 0.0 | 0.0 | 0.00 | 0.00 | 0.00 | 84 | 1014.9 |
| 20260903073318 | 77 | 218 | 0.0 | 3.0 | 0.00 | 0.00 | 0.00 | 84 | 1014.9 |
| 20260903072818 | 77 | 236 | 0.0 | 3.0 | 0.00 | 0.00 | 0.00 | 84 | 1014.9 |
| 20260903072348 | 77 | 200 | 0.0 | 3.0 | 0.00 | 0.00 | 0.00 | 84 | 1014.9 |
| 20260903071848 | 77 | 229 | 0.0 | 1.0 | 0.00 | 0.00 | 0.00 | 84 | 1014.9 |
| 20260903071348 | 77 | 229 | 0.0 | 1.0 | 0.00 | 0.00 | 0.00 | 85 | 1014.9 |
| 20260903070848 | 77 | 229 | 0.0 | 1.0 | 0.00 | 0.00 | 0.00 | 85 | 1014.9 |
| 20260903065849 | 77 | 229 | 0.0 | 1.0 | 0.00 | 0.00 | 0.00 | 85 | 1014.9 |
| 20260903065347 | 76 | 234 | 0.0 | 2.0 | 0.00 | 0.00 | 0.00 | 86 | 1014.7 |
| 20260903064347 | 78 | 213 | 0.0 | 2.0 | 0.00 | 0.00 | 0.00 | 84 | 1014.8 |
| 20260903063847 | 78 | 213 | 0.0 | 2.0 | 0.00 | 0.00 | 0.00 | 83 | 1014.8 |
| 20260903063347 | 78 | 207 | 0.0 | 2.0 | 0.00 | 0.00 | 0.00 | 83 | 1014.9 |
| 20260903062847 | 78 | 212 | 0.0 | 1.0 | 0.00 | 0.00 | 0.00 | 84 | 1015.0 |
| 20260903062346 | 78 | 197 | 0.0 | 0.0 | 0.00 | 0.00 | 0.00 | 83 | 1015.0 |
| 20260903061846 | 78 | 197 | 0.0 | 2.0 | 0.00 | 0.00 | 0.00 | 83 | 1015.0 |
| 20260903061346 | 78 | 197 | 0.0 | 2.0 | 0.00 | 0.00 | 0.00 | 83 | 1015.0 |
| 20260903060846 | 78 | 211 | 0.0 | 2.0 | 0.00 | 0.00 | 0.00 | 83 | 1015.1 |
| 20260903060346 | 78 | 234 | 0.0 | 2.0 | 0.00 | 0.00 | 0.00 | 83 | 1015.1 |
| 20260903055846 | 78 | 292 | 2.0 | 4.0 | 0.00 | 0.00 | 0.00 | 83 | 1015.0 |
| 20260903055346 | 78 | 209 | 1.0 | 4.0 | 0.00 | 0.00 | 0.00 | 83 | 1015.0 |
| 20260903054345 | 78 | 226 | 1.0 | 3.0 | 0.00 | 0.00 | 0.00 | 83 | 1015.0 |
| 20260903053845 | 79 | 217 | 2.0 | 3.0 | 0.00 | 0.00 | 0.00 | 83 | 1014.9 |
| 20260903053345 | 79 | 217 | 1.0 | 5.0 | 0.00 | 0.00 | 0.00 | 83 | 1014.9 |
| 20260903052344 | 79 | 227 | 0.0 | 4.0 | 0.00 | 0.00 | 0.00 | 83 | 1014.8 |
| 20260903051844 | 79 | 223 | 1.0 | 4.0 | 0.00 | 0.00 | 0.00 | 83 | 1014.8 |
| 20260903051344 | 79 | 238 | 1.0 | 4.0 | 0.00 | 0.00 | 0.00 | 83 | 1014.8 |
| 20260903050844 | 79 | 202 | 1.0 | 4.0 | 0.00 | 0.00 | 0.00 | 83 | 1014.8 |
| 20260903050344 | 79 | 218 | 0.0 | 5.0 | 0.00 | 0.00 | 0.00 | 83 | 1014.8 |
| 20260903045844 | 79 | 220 | 1.0 | 5.0 | 0.00 | 0.00 | 0.00 | 83 | 1014.7 |
| 20260903045344 | 79 | 240 | 2.0 | 3.0 | 0.00 | 0.00 | 0.00 | 83 | 1014.7 |
| 20260903044844 | 79 | 188 | 1.0 | 5.0 | 0.00 | 0.00 | 0.00 | 83 | 1014.6 |
| 20260903044343 | 79 | 198 | 0.0 | 5.0 | 0.00 | 0.00 | 0.00 | 83 | 1014.6 |
| 20260903043343 | 79 | 207 | 2.0 | 4.0 | 0.00 | 0.00 | 0.00 | 83 | 1014.6 |
| 20260903042843 | 79 | 200 | 1.0 | 4.0 | 0.00 | 0.00 | 0.00 | 83 | 1014.6 |
| 20260903042343 | 79 | 221 | 1.0 | 4.0 | 0.00 | 0.00 | 0.00 | 83 | 1014.6 |
| 20260903040842 | 79 | 218 | 1.0 | 5.0 | 0.00 | 0.00 | 0.00 | 83 | 1014.5 |
| 20260903040342 | 79 | 198 | 3.0 | 5.0 | 0.00 | 0.00 | 0.00 | 83 | 1014.6 |
| 20260903035842 | 79 | 207 | 1.0 | 5.0 | 0.00 | 0.00 | 0.00 | 83 | 1014.6 |
| 20260903035342 | 79 | 213 | 2.0 | 5.0 | 0.00 | 0.00 | 0.00 | 83 | 1014.5 |
| 20260903034842 | 80 | 228 | 3.0 | 5.0 | 0.00 | 0.00 | 0.00 | 82 | 1014.7 |
| 20260903034342 | 80 | 186 | 3.0 | 5.0 | 0.00 | 0.00 | 0.00 | 82 | 1014.6 |
| 20260903033842 | 80 | 198 | 1.0 | 5.0 | 0.00 | 0.00 | 0.00 | 82 | 1014.7 |
| 20260903033341 | 80 | 194 | 2.0 | 4.0 | 0.00 | 0.00 | 0.00 | 82 | 1014.7 |
| 20260903032841 | 80 | 227 | 1.0 | 5.0 | 0.00 | 0.00 | 0.00 | 82 | 1014.7 |
| 20260903032341 | 80 | 196 | 2.0 | 5.0 | 0.00 | 0.00 | 0.00 | 82 | 1014.8 |
| 20260903031841 | 80 | 207 | 2.0 | 5.0 | 0.00 | 0.00 | 0.00 | 82 | 1014.8 |
| 20260903031341 | 80 | 206 | 1.0 | 5.0 | 0.00 | 0.00 | 0.00 | 82 | 1014.8 |
| 20260903030840 | 80 | 198 | 4.0 | 4.0 | 0.00 | 0.00 | 0.00 | 82 | 1014.9 |
| 20260903030340 | 80 | 204 | 1.0 | 6.0 | 0.00 | 0.00 | 0.00 | 82 | 1014.9 |
| 20260903025840 | 80 | 230 | 3.0 | 6.0 | 0.00 | 0.00 | 0.00 | 82 | 1014.9 |
| 20260903025340 | 80 | 217 | 2.0 | 5.0 | 0.00 | 0.00 | 0.00 | 82 | 1014.9 |
| 20260903024840 | 80 | 204 | 2.0 | 4.0 | 0.00 | 0.00 | 0.00 | 82 | 1015.0 |
| 20260903024340 | 80 | 214 | 1.0 | 4.0 | 0.00 | 0.00 | 0.00 | 82 | 1014.9 |
| 20260903023840 | 80 | 231 | 0.0 | 4.0 | 0.00 | 0.00 | 0.00 | 82 | 1014.9 |
| 20260903023339 | 80 | 196 | 1.0 | 3.0 | 0.00 | 0.00 | 0.00 | 82 | 1014.9 |
| 20260903022839 | 80 | 208 | 1.0 | 3.0 | 0.00 | 0.00 | 0.00 | 82 | 1015.0 |
| 20260903022339 | 80 | 208 | 1.0 | 3.0 | 0.00 | 0.00 | 0.00 | 81 | 1015.0 |
| 20260903020839 | 80 | 217 | 1.0 | 4.0 | 0.00 | 0.00 | 0.00 | 81 | 1015.0 |
| 20260903020338 | 81 | 229 | 0.0 | 4.0 | 0.00 | 0.00 | 0.00 | 81 | 1015.0 |
| 20260903015838 | 81 | 204 | 0.0 | 3.0 | 0.00 | 0.00 | 0.00 | 81 | 1014.9 |
| 20260903015339 | 81 | 236 | 1.0 | 3.0 | 0.00 | 0.00 | 0.00 | 81 | 1014.9 |
| 20260903014838 | 80 | 213 | 0.0 | 3.0 | 0.00 | 0.00 | 0.00 | 81 | 1014.8 |
| 20260903014338 | 81 | 213 | 0.0 | 3.0 | 0.00 | 0.00 | 0.00 | 80 | 1014.8 |
| 20260903013837 | 81 | 241 | 2.0 | 4.0 | 0.00 | 0.00 | 0.00 | 80 | 1014.7 |
| 20260903013337 | 81 | 204 | 1.0 | 4.0 | 0.00 | 0.00 | 0.00 | 81 | 1014.5 |
| 20260903012837 | 81 | 221 | 1.0 | 4.0 | 0.00 | 0.00 | 0.00 | 80 | 1014.5 |
| 20260903012337 | 81 | 215 | 0.0 | 4.0 | 0.00 | 0.00 | 0.00 | 80 | 1014.5 |
| 20260903011837 | 81 | 232 | 2.0 | 4.0 | 0.00 | 0.00 | 0.00 | 80 | 1014.4 |
| 20260903011337 | 81 | 203 | 1.0 | 4.0 | 0.00 | 0.00 | 0.00 | 80 | 1014.4 |
| 20260903010837 | 81 | 229 | 2.0 | 4.0 | 0.00 | 0.00 | 0.00 | 79 | 1014.4 |
| 20260903010337 | 82 | 216 | 1.0 | 3.0 | 0.00 | 0.00 | 0.00 | 79 | 1014.5 |
| 20260903005837 | 82 | 216 | 1.0 | 5.0 | 0.00 | 0.00 | 0.00 | 78 | 1014.3 |
| 20260903005336 | 83 | 202 | 1.0 | 5.0 | 0.00 | 0.00 | 0.00 | 77 | 1014.2 |
| 20260903004336 | 83 | 213 | 2.0 | 5.0 | 0.00 | 0.00 | 0.00 | 77 | 1014.2 |
| 20260903003836 | 83 | 200 | 4.0 | 5.0 | 0.00 | 0.00 | 0.00 | 77 | 1014.2 |
| 20260903003335 | 83 | 213 | 4.0 | 5.0 | 0.00 | 0.00 | 0.00 | 78 | 1014.2 |
| 20260903001835 | 84 | 213 | 1.0 | 4.0 | 0.00 | 0.00 | 0.00 | 77 | 1014.2 |
| 20260903001335 | 84 | 202 | 2.0 | 3.0 | 0.00 | 0.00 | 0.00 | 77 | 1014.2 |
| 20260903000835 | 84 | 220 | 2.0 | 4.0 | 0.00 | 0.00 | 0.00 | 76 | 1014.2 |
| 20260903000335 | 84 | 209 | 1.0 | 5.0 | 0.00 | 0.00 | 0.00 | 76 | 1014.2 |
| 20260902235834 | 85 | 219 | 3.0 | 5.0 | 0.00 | 0.00 | 0.00 | 75 | 1013.9 |
| 20260902235334 | 85 | 211 | 1.0 | 4.0 | 0.00 | 0.00 | 0.00 | 75 | 1013.9 |
| 20260902234334 | 86 | 213 | 1.0 | 4.0 | 0.00 | 0.00 | 0.00 | 73 | 1013.9 |
| 20260902233334 | 87 | 211 | 1.0 | 6.0 | 0.00 | 0.00 | 0.00 | 72 | 1014.0 |
| 20260902232334 | 87 | 200 | 2.0 | 7.0 | 0.00 | 0.00 | 0.00 | 71 | 1014.1 |
| 20260902231834 | 87 | 196 | 2.0 | 7.0 | 0.00 | 0.00 | 0.00 | 70 | 1013.9 |
| 20260902230333 | 88 | 200 | 2.0 | 8.0 | 0.00 | 0.00 | 0.00 | 69 | 1013.9 |
| 20260902225833 | 89 | 198 | 2.0 | 10.0 | 0.00 | 0.00 | 0.00 | 69 | 1014.0 |
| 20260902224833 | 89 | 197 | 4.0 | 11.0 | 0.00 | 0.00 | 0.00 | 68 | 1013.9 |
| 20260902224332 | 89 | 205 | 3.0 | 11.0 | 0.00 | 0.00 | 0.00 | 67 | 1013.9 |
| 20260902223332 | 90 | 190 | 2.0 | 11.0 | 0.00 | 0.00 | 0.00 | 67 | 1013.8 |
| 20260902222331 | 90 | 196 | 10.0 | 11.0 | 0.00 | 0.00 | 0.00 | 66 | 1013.9 |
| 20260902221831 | 90 | 250 | 3.0 | 11.0 | 0.00 | 0.00 | 0.00 | 65 | 1014.0 |
| 20260902221331 | 91 | 167 | 4.0 | 11.0 | 0.00 | 0.00 | 0.00 | 64 | 1014.2 |
| 20260902220831 | 91 | 196 | 3.0 | 11.0 | 0.00 | 0.00 | 0.00 | 64 | 1014.3 |
| 20260902215831 | 91 | 186 | 4.0 | 9.0 | 0.00 | 0.00 | 0.00 | 65 | 1014.1 |
| 20260902215331 | 91 | 277 | 3.0 | 11.0 | 0.00 | 0.00 | 0.00 | 64 | 1014.0 |
| 20260902214830 | 91 | 209 | 6.0 | 13.0 | 0.00 | 0.00 | 0.00 | 63 | 1014.0 |
| 20260902214330 | 91 | 192 | 7.0 | 13.0 | 0.00 | 0.00 | 0.00 | 63 | 1014.1 |
| 20260902213830 | 91 | 219 | 6.0 | 12.0 | 0.00 | 0.00 | 0.00 | 63 | 1014.0 |
| 20260902213330 | 91 | 200 | 3.0 | 13.0 | 0.00 | 0.00 | 0.00 | 64 | 1014.1 |
| 20260902212830 | 91 | 182 | 4.0 | 15.0 | 0.00 | 0.00 | 0.00 | 64 | 1014.2 |
| 20260902212330 | 91 | 281 | 11.0 | 15.0 | 0.00 | 0.00 | 0.00 | 62 | 1014.0 |
| 20260902211830 | 91 | 232 | 7.0 | 12.0 | 0.00 | 0.00 | 0.00 | 62 | 1014.1 |
| 20260902210829 | 92 | 218 | 3.0 | 13.0 | 0.00 | 0.00 | 0.00 | 61 | 1014.3 |
| 20260902205829 | 91 | 206 | 7.0 | 14.0 | 0.00 | 0.00 | 0.00 | 62 | 1014.3 |
| 20260902205329 | 92 | 174 | 7.0 | 13.0 | 0.00 | 0.00 | 0.00 | 61 | 1014.4 |
| 20260902204829 | 92 | 238 | 4.0 | 12.0 | 0.00 | 0.00 | 0.00 | 63 | 1014.5 |
| 20260902204329 | 92 | 173 | 3.0 | 12.0 | 0.00 | 0.00 | 0.00 | 62 | 1014.5 |
| 20260902203328 | 92 | 200 | 2.0 | 12.0 | 0.00 | 0.00 | 0.00 | 61 | 1014.7 |
| 20260902202828 | 92 | 195 | 9.0 | 14.0 | 0.00 | 0.00 | 0.00 | 62 | 1014.8 |
| 20260902201828 | 92 | 184 | 4.0 | 13.0 | 0.00 | 0.00 | 0.00 | 60 | 1015.0 |
| 20260902201328 | 92 | 173 | 4.0 | 14.0 | 0.00 | 0.00 | 0.00 | 62 | 1015.0 |
| 20260902200828 | 92 | 218 | 3.0 | 14.0 | 0.00 | 0.00 | 0.00 | 62 | 1015.0 |
| 20260902195827 | 92 | 200 | 10.0 | 11.0 | 0.00 | 0.00 | 0.00 | 62 | 1015.1 |
| 20260902195327 | 92 | 213 | 4.0 | 11.0 | 0.00 | 0.00 | 0.00 | 60 | 1015.2 |
| 20260902194827 | 92 | 170 | 4.0 | 11.0 | 0.00 | 0.00 | 0.00 | 60 | 1015.2 |
| 20260902194326 | 92 | 171 | 4.0 | 11.0 | 0.00 | 0.00 | 0.00 | 59 | 1015.3 |
| 20260902193326 | 93 | 186 | 4.0 | 9.0 | 0.00 | 0.00 | 0.00 | 61 | 1015.5 |
| 20260902192826 | 92 | 196 | 5.0 | 13.0 | 0.00 | 0.00 | 0.00 | 60 | 1015.4 |
| 20260902192326 | 92 | 165 | 2.0 | 13.0 | 0.00 | 0.00 | 0.00 | 58 | 1015.5 |
| 20260902191326 | 93 | 173 | 6.0 | 7.0 | 0.00 | 0.00 | 0.00 | 61 | 1015.6 |
| 20260902190325 | 92 | 48 | 3.0 | 12.0 | 0.00 | 0.00 | 0.00 | 59 | 1015.6 |
| 20260902185325 | 92 | 200 | 5.0 | 16.0 | 0.00 | 0.00 | 0.00 | 60 | 1015.7 |
| 20260902184825 | 92 | 216 | 9.0 | 11.0 | 0.00 | 0.00 | 0.00 | 60 | 1015.8 |
| 20260902184325 | 92 | 188 | 5.0 | 13.0 | 0.00 | 0.00 | 0.00 | 64 | 1015.8 |
| 20260902183825 | 92 | 249 | 4.0 | 13.0 | 0.00 | 0.00 | 0.00 | 61 | 1016.0 |
| 20260902183325 | 91 | 171 | 7.0 | 11.0 | 0.00 | 0.00 | 0.00 | 61 | 1016.0 |
| 20260902182824 | 92 | 194 | 5.0 | 11.0 | 0.00 | 0.00 | 0.00 | 59 | 1016.1 |
| 20260902180824 | 92 | 157 | 2.0 | 7.0 | 0.00 | 0.00 | 0.00 | 60 | 1016.1 |
| 20260902180324 | 92 | 193 | 2.0 | 10.0 | 0.00 | 0.00 | 0.00 | 60 | 1016.2 |
| 20260902175823 | 92 | 317 | 2.0 | 10.0 | 0.00 | 0.00 | 0.00 | 58 | 1016.3 |
| 20260902175323 | 92 | 202 | 6.0 | 8.0 | 0.00 | 0.00 | 0.00 | 61 | 1016.3 |
| 20260902174823 | 92 | 250 | 5.0 | 9.0 | 0.00 | 0.00 | 0.00 | 62 | 1016.4 |
| 20260902174323 | 91 | 186 | 4.0 | 13.0 | 0.00 | 0.00 | 0.00 | 62 | 1016.3 |
| 20260902173823 | 91 | 224 | 3.0 | 13.0 | 0.00 | 0.00 | 0.00 | 61 | 1016.3 |
| 20260902173323 | 92 | 192 | 11.0 | 11.0 | 0.00 | 0.00 | 0.00 | 60 | 1016.5 |
| 20260902172823 | 91 | 213 | 1.0 | 13.0 | 0.00 | 0.00 | 0.00 | 63 | 1016.4 |
| 20260902172322 | 91 | 191 | 2.0 | 13.0 | 0.00 | 0.00 | 0.00 | 63 | 1016.4 |
| 20260902171823 | 91 | 188 | 3.0 | 11.0 | 0.00 | 0.00 | 0.00 | 61 | 1016.4 |
| 20260902171322 | 91 | 190 | 5.0 | 9.0 | 0.00 | 0.00 | 0.00 | 63 | 1016.6 |
| 20260902170322 | 91 | 154 | 3.0 | 11.0 | 0.00 | 0.00 | 0.00 | 65 | 1016.8 |
| 20260902165822 | 91 | 188 | 3.0 | 11.0 | 0.00 | 0.00 | 0.00 | 63 | 1016.9 |
| 20260902165321 | 91 | 219 | 3.0 | 9.0 | 0.00 | 0.00 | 0.00 | 64 | 1016.9 |
| 20260902164822 | 91 | 196 | 4.0 | 9.0 | 0.00 | 0.00 | 0.00 | 63 | 1016.9 |
| 20260902164321 | 91 | 205 | 2.0 | 9.0 | 0.00 | 0.00 | 0.00 | 62 | 1016.9 |
| 20260902163821 | 91 | 225 | 2.0 | 9.0 | 0.00 | 0.00 | 0.00 | 65 | 1016.9 |
| 20260902162321 | 90 | 226 | 6.0 | 11.0 | 0.00 | 0.00 | 0.00 | 66 | 1017.1 |
| 20260902161320 | 90 | 199 | 4.0 | 10.0 | 0.00 | 0.00 | 0.00 | 66 | 1017.0 |
| 20260902160850 | 90 | 207 | 4.0 | 10.0 | 0.00 | 0.00 | 0.00 | 64 | 1016.9 |
| 20260902160350 | 90 | 196 | 4.0 | 10.0 | 0.00 | 0.00 | 0.00 | 66 | 1016.9 |
| 20260902155850 | 90 | 198 | 3.0 | 6.0 | 0.00 | 0.00 | 0.00 | 65 | 1016.8 |
| 20260902155349 | 89 | 116 | 2.0 | 6.0 | 0.00 | 0.00 | 0.00 | 64 | 1017.0 |
| 20260902154849 | 90 | 174 | 4.0 | 5.0 | 0.00 | 0.00 | 0.00 | 66 | 1017.0 |
| 20260902154349 | 90 | 187 | 1.0 | 5.0 | 0.00 | 0.00 | 0.00 | 68 | 1017.0 |
| 20260902153349 | 89 | 275 | 0.0 | 5.0 | 0.00 | 0.00 | 0.00 | 69 | 1017.0 |
| 20260902152849 | 88 | 186 | 0.0 | 5.0 | 0.00 | 0.00 | 0.00 | 68 | 1016.9 |
| 20260902152349 | 88 | 216 | 2.0 | 7.0 | 0.00 | 0.00 | 0.00 | 69 | 1017.0 |
| 20260902151849 | 88 | 178 | 3.0 | 7.0 | 0.00 | 0.00 | 0.00 | 71 | 1017.0 |
| 20260902151348 | 88 | 191 | 0.0 | 6.0 | 0.00 | 0.00 | 0.00 | 69 | 1017.0 |
| 20260902150848 | 87 | 186 | 2.0 | 6.0 | 0.00 | 0.00 | 0.00 | 70 | 1016.8 |
| 20260902150348 | 88 | 316 | 2.0 | 4.0 | 0.00 | 0.00 | 0.00 | 72 | 1016.9 |
| 20260902145848 | 88 | 187 | 1.0 | 5.0 | 0.00 | 0.00 | 0.00 | 70 | 1017.0 |
| 20260902145348 | 88 | 204 | 2.0 | 5.0 | 0.00 | 0.00 | 0.00 | 71 | 1017.0 |
| 20260902144847 | 88 | 233 | 0.0 | 4.0 | 0.00 | 0.00 | 0.00 | 72 | 1017.1 |
| 20260902143847 | 87 | 304 | 4.0 | 4.0 | 0.00 | 0.00 | 0.00 | 71 | 1017.0 |
| 20260902143347 | 86 | 231 | 1.0 | 4.0 | 0.00 | 0.00 | 0.00 | 74 | 1017.1 |
| 20260902142847 | 86 | 222 | 0.0 | 6.0 | 0.00 | 0.00 | 0.00 | 74 | 1017.1 |
| 20260902142347 | 86 | 208 | 0.0 | 6.0 | 0.00 | 0.00 | 0.00 | 73 | 1016.9 |
| 20260902141847 | 86 | 107 | 1.0 | 2.0 | 0.00 | 0.00 | 0.00 | 75 | 1017.0 |
| 20260902140847 | 85 | 287 | 0.0 | 3.0 | 0.00 | 0.00 | 0.00 | 78 | 1017.1 |
| 20260902140346 | 84 | 162 | 1.0 | 3.0 | 0.00 | 0.00 | 0.00 | 76 | 1016.9 |
| 20260902135346 | 83 | 157 | 2.0 | 3.0 | 0.00 | 0.00 | 0.00 | 77 | 1016.9 |
| 20260902134846 | 83 | 99 | 0.0 | 2.0 | 0.00 | 0.00 | 0.00 | 79 | 1016.9 |
| 20260902133345 | 81 | 223 | 0.0 | 4.0 | 0.00 | 0.00 | 0.00 | 83 | 1016.8 |
| 20260902132845 | 81 | 221 | 1.0 | 4.0 | 0.00 | 0.00 | 0.00 | 82 | 1016.9 |
| 20260902132345 | 80 | 180 | 3.0 | 4.0 | 0.00 | 0.00 | 0.00 | 82 | 1016.9 |
| 20260902131845 | 79 | 176 | 3.0 | 4.0 | 0.00 | 0.00 | 0.00 | 84 | 1016.8 |
| 20260902131345 | 79 | 205 | 1.0 | 3.0 | 0.00 | 0.00 | 0.00 | 84 | 1016.8 |
| 20260902130845 | 78 | 293 | 0.0 | 3.0 | 0.00 | 0.00 | 0.00 | 85 | 1016.8 |
| 20260902130345 | 78 | 219 | 0.0 | 3.0 | 0.00 | 0.00 | 0.00 | 86 | 1016.9 |
| 20260902125845 | 77 | 194 | 1.0 | 3.0 | 0.00 | 0.00 | 0.00 | 86 | 1016.9 |
| 20260902125344 | 77 | 189 | 1.0 | 4.0 | 0.00 | 0.00 | 0.00 | 87 | 1016.9 |
| 20260902124844 | 76 | 190 | 1.0 | 5.0 | 0.00 | 0.00 | 0.00 | 88 | 1016.9 |
| 20260902124344 | 76 | 213 | 2.0 | 5.0 | 0.00 | 0.00 | 0.00 | 89 | 1016.9 |
| 20260902123843 | 75 | 210 | 2.0 | 3.0 | 0.00 | 0.00 | 0.00 | 89 | 1016.9 |
| 20260902123343 | 75 | 196 | 0.0 | 3.0 | 0.00 | 0.00 | 0.00 | 90 | 1016.9 |
| 20260902122843 | 74 | 199 | 2.0 | 3.0 | 0.00 | 0.00 | 0.00 | 91 | 1016.8 |